Date String (YYYY-MM-DD hh:mm:ss) UTC,Instrument flags,Ambient pressure (hPa),Sample flow (lpm),Bypass flow (lpm),Sample temperature (°C),Ambient temperature (°C),ASC tube jacket temperature (°C),LED temperature (°C),Box temperature (°C),Sample RH (%),Span deviation,Mass concentration (μg/m³),Mass concentration (μg/m³),Mass concentration (μg/m³)
DateTimeUTC,F1_M11,P_M11,Q1_M11,Q2_M11,T1_M11,T2_M11,T3_M11,T4_M11,T5_M11,U1_M11,ZSPAN_M11,X0_M11,X2_M11,X1_M11
2023-01-19 13:00:00,,0819.5,5.01,0.00,22.1,22.6,00.0,30.8,24.1,05.8,0000.0,0001.00,0000.53,0000.35
2023-01-19 13:01:00,,0819.5,5.00,0.00,22.2,22.9,00.0,30.9,24.2,05.8,0000.0,0000.97,0000.52,0000.35
2023-01-19 13:02:00,,0819.4,5.00,0.00,22.3,22.3,00.0,30.9,24.1,05.9,0000.0,0000.91,0000.50,0000.34
2023-01-19 13:03:00,,0819.4,5.00,0.00,22.2,21.7,00.0,30.9,24.0,06.0,0000.0,0001.07,0000.48,0000.34
2023-01-19 13:04:00,,0819.4,4.99,0.00,22.2,21.3,00.0,30.9,23.9,06.5,0000.0,0001.31,0000.50,0000.34
2023-01-19 13:05:00,,0819.5,4.99,0.00,22.1,20.9,00.0,30.9,23.7,06.8,0000.0,0001.39,0000.51,0000.35
2023-01-19 13:06:00,,0819.5,5.02,0.00,22.1,20.7,00.0,30.9,23.7,06.8,0000.0,0001.41,0000.52,0000.36
2023-01-19 13:07:00,,0819.5,4.99,0.00,22.0,20.5,00.0,30.9,23.6,06.4,0000.0,0001.46,0000.56,0000.37
2023-01-19 13:08:00,,0819.4,4.98,0.00,22.0,20.3,00.0,30.9,23.5,06.1,0000.0,0001.41,0000.55,0000.37
2023-01-19 13:09:00,,0819.5,4.99,0.00,22.0,20.2,00.0,30.9,23.4,06.2,0000.0,0001.38,0000.55,0000.36
2023-01-19 13:10:00,,0819.5,5.00,0.00,21.9,20.6,00.0,30.9,23.5,06.1,0000.0,0001.39,0000.56,0000.37
2023-01-19 13:11:00,,0819.5,5.00,0.00,22.0,21.7,00.0,30.8,23.8,06.1,0000.0,0001.52,0000.57,0000.38
2023-01-19 13:12:00,,0819.5,4.99,0.00,22.1,22.7,00.0,30.9,24.0,05.8,0000.0,0001.56,0000.56,0000.38
2023-01-19 13:13:00,,0819.6,4.99,0.00,22.2,22.6,00.0,30.9,24.1,05.9,0000.0,0002.09,0000.62,0000.40
2023-01-19 13:14:00,,0819.7,5.00,0.00,22.2,22.0,00.0,30.9,24.1,05.9,0000.0,0002.09,0000.66,0000.42
2023-01-19 13:15:00,,0819.7,5.01,0.00,22.2,21.5,00.0,30.9,24.0,05.8,0000.0,0001.75,0000.65,0000.42
2023-01-19 13:16:00,,0819.7,5.01,0.00,22.2,21.2,00.0,31.0,23.9,05.8,0000.0,0001.60,0000.63,0000.42
2023-01-19 13:17:00,,0819.7,5.01,0.00,22.1,20.8,00.0,31.0,23.8,05.8,0000.0,0001.58,0000.63,0000.42
2023-01-19 13:18:00,,0819.7,5.00,0.00,22.1,20.5,00.0,30.9,23.7,05.8,0000.0,0001.53,0000.60,0000.41
2023-01-19 13:19:00,,0819.7,5.00,0.00,22.1,20.3,00.0,30.9,23.6,05.8,0000.0,0001.53,0000.59,0000.41
2023-01-19 13:20:00,,0819.8,5.01,0.00,22.0,20.1,00.0,30.9,23.6,05.9,0000.0,0001.53,0000.59,0000.42
2023-01-19 13:21:00,,0819.8,5.00,0.00,22.0,20.1,00.0,30.9,23.5,06.2,0000.0,0001.75,0000.65,0000.43
2023-01-19 13:22:00,,0819.8,5.00,0.00,22.0,20.3,00.0,30.9,23.6,06.4,0000.0,0001.87,0000.70,0000.44
2023-01-19 13:23:00,,0819.8,5.01,0.00,22.0,21.5,00.0,30.8,23.8,06.2,0000.0,0001.81,0000.70,0000.45
2023-01-19 13:24:00,,0819.8,5.01,0.00,22.1,22.6,00.0,30.8,24.1,06.0,0000.0,0001.47,0000.67,0000.45
2023-01-19 13:25:00,,0819.9,4.99,0.00,22.3,22.8,00.0,30.9,24.3,05.8,0000.0,0001.29,0000.63,0000.43
2023-01-19 13:26:00,,0819.9,5.00,0.00,22.3,22.3,00.0,30.9,24.2,06.0,0000.0,0001.32,0000.65,0000.43
2023-01-19 13:27:00,,0819.9,5.00,0.00,22.3,21.9,00.0,31.0,24.1,06.2,0000.0,0001.57,0000.69,0000.45
2023-01-19 13:28:00,,0819.9,5.00,0.00,22.3,21.5,00.0,31.0,24.0,06.3,0000.0,0001.87,0000.79,0000.51
2023-01-19 13:29:00,,0819.9,5.00,0.00,22.3,21.2,00.0,31.0,24.0,06.2,0000.0,0002.12,0000.85,0000.56
2023-01-19 13:30:00,,0819.9,5.01,0.00,22.3,21.0,00.0,31.0,24.0,06.2,0000.0,0002.95,0000.92,0000.59
2023-01-19 13:31:00,,0819.9,5.00,0.00,22.2,20.8,00.0,31.0,23.9,06.3,0000.0,0003.39,0000.99,0000.62
2023-01-19 13:32:00,,0819.9,4.99,0.00,22.2,20.7,00.0,31.0,23.9,06.4,0000.0,0003.41,0001.03,0000.65
2023-01-19 13:33:00,,0819.9,4.99,0.00,22.2,20.6,00.0,31.0,23.9,06.7,0000.0,0003.87,0001.13,0000.69
2023-01-19 13:34:00,,0819.8,5.00,0.00,22.2,20.5,00.0,31.0,23.9,06.5,0000.0,0004.22,0001.20,0000.73
2023-01-19 13:35:00,,0819.8,5.00,0.00,22.1,20.4,00.0,30.9,23.8,06.2,0000.0,0004.19,0001.21,0000.75
2023-01-19 13:36:00,,0819.8,5.00,0.00,22.1,20.3,00.0,30.9,23.8,06.2,0000.0,0004.19,0001.24,0000.78
2023-01-19 13:37:00,,0819.8,5.00,0.00,22.1,20.5,00.0,30.9,23.7,06.2,0000.0,0004.39,0001.29,0000.81
2023-01-19 13:38:00,,0819.8,4.99,0.00,22.2,21.5,00.0,30.9,24.0,06.1,0000.0,0004.21,0001.28,0000.81
2023-01-19 13:39:00,,0819.9,5.01,0.00,22.3,22.5,00.0,30.9,24.2,06.0,0000.0,0004.11,0001.23,0000.78
2023-01-19 13:40:00,,0819.8,5.00,0.00,22.4,22.7,00.0,31.0,24.3,06.0,0000.0,0004.83,0001.20,0000.75
2023-01-19 13:41:00,,0819.7,4.99,0.00,22.4,22.3,00.0,31.0,24.3,06.0,0000.0,0004.40,0001.17,0000.73
2023-01-19 13:42:00,,0819.7,5.01,0.00,22.4,21.8,00.0,31.0,24.2,05.9,0000.0,0004.74,0001.12,0000.70
2023-01-19 13:43:00,,0819.7,5.00,0.00,22.4,21.4,00.0,31.0,24.1,05.9,0000.0,0004.59,0001.05,0000.68
2023-01-19 13:44:00,,0819.8,5.00,0.00,22.3,21.1,00.0,31.1,24.0,05.9,0000.0,0004.03,0000.90,0000.63
2023-01-19 13:45:00,,0819.8,4.99,0.00,22.3,20.9,00.0,31.1,24.0,05.9,0000.0,0003.61,0000.83,0000.59
2023-01-19 13:46:00,,0819.8,5.01,0.00,22.3,20.7,00.0,31.0,23.9,05.9,0000.0,0003.64,0000.85,0000.58
2023-01-19 13:47:00,,0819.8,5.01,0.00,22.2,20.6,00.0,31.0,23.8,05.8,0000.0,0003.65,0000.86,0000.57
2023-01-19 13:48:00,,0819.8,5.00,0.00,22.2,20.5,00.0,31.0,23.8,05.8,0000.0,0003.44,0000.80,0000.55
2023-01-19 13:49:00,,0819.8,5.00,0.00,22.2,20.4,00.0,31.0,23.8,05.7,0000.0,0003.42,0000.78,0000.53
2023-01-19 13:50:00,,0819.8,4.99,0.00,22.1,20.4,00.0,31.0,23.7,05.8,0000.0,0003.25,0000.73,0000.51
2023-01-19 13:51:00,,0819.7,5.00,0.00,22.1,20.4,00.0,31.0,23.7,05.8,0000.0,0002.85,0000.70,0000.50
2023-01-19 13:52:00,,0819.7,5.01,0.00,22.1,20.6,00.0,31.0,23.7,05.9,0000.0,0002.70,0000.70,0000.50
2023-01-19 13:53:00,,0819.7,5.02,0.00,22.2,21.7,00.0,30.9,24.0,05.7,0000.0,0001.84,0000.70,0000.51
2023-01-19 13:54:00,,0819.7,5.01,0.00,22.3,22.7,00.0,30.9,24.2,05.7,0000.0,0001.94,0000.72,0000.51
2023-01-19 13:55:00,,0819.7,4.99,0.00,22.4,22.8,00.0,31.0,24.3,05.6,0000.0,0002.07,0000.73,0000.50
2023-01-19 13:56:00,,0819.7,4.99,0.00,22.4,22.3,00.0,31.0,24.3,06.1,0000.0,0002.09,0000.75,0000.52
2023-01-19 13:57:00,,0819.7,5.01,0.00,22.4,21.9,00.0,31.1,24.2,06.6,0000.0,0002.18,0000.82,0000.58
2023-01-19 13:58:00,,0819.7,4.99,0.00,22.4,21.5,00.0,31.1,24.2,06.5,0000.0,0002.21,0000.86,0000.65
2023-01-19 13:59:00,,0819.7,4.99,0.00,22.4,21.3,00.0,31.1,24.1,06.5,0000.0,0002.26,0000.92,0000.71
